Time,TemperatureF,DewpointF,PressureIn,WindDirection,WindDirectionDegrees,WindSpeedMPH,WindSpeedGustMPH,Humidity,HourlyPrecipIn,Conditions,Clouds,dailyrainin,SoftwareType,DateUTC
2013-02-04 00:00:00,31.2,27.8,29.85,West,281,0.0,0.0,87,0.00,,,0.00,Wunderground v.1.15,2013-02-04 06:00:00,
2013-02-04 00:10:00,30.8,27.4,29.85,West,281,0.0,0.0,87,0.00,,,0.00,Wunderground v.1.15,2013-02-04 06:10:00,
2013-02-04 00:20:00,30.6,27.5,29.84,West,281,0.0,0.0,88,0.00,,,0.00,Wunderground v.1.15,2013-02-04 06:20:00,
2013-02-04 00:30:00,30.1,27.0,29.84,West,281,0.0,0.0,88,0.00,,,0.00,Wunderground v.1.15,2013-02-04 06:30:00,
2013-02-04 00:40:00,29.8,27.0,29.84,West,281,0.0,0.0,89,0.00,,,0.00,Wunderground v.1.15,2013-02-04 06:40:00,
2013-02-04 00:50:00,29.4,26.8,29.84,West,281,0.0,0.0,90,0.00,,,0.00,Wunderground v.1.15,2013-02-04 06:50:00,
2013-02-04 01:00:00,29.6,27.0,29.84,West,278,0.0,0.0,90,0.00,,,0.00,Wunderground v.1.15,2013-02-04 07:00:00,
2013-02-04 01:10:00,29.8,27.0,29.84,West,278,1.0,1.0,89,0.00,,,0.00,Wunderground v.1.15,2013-02-04 07:10:00,
2013-02-04 01:20:00,30.0,26.9,29.84,West,278,1.0,2.0,88,0.00,,,0.00,Wunderground v.1.15,2013-02-04 07:20:00,
2013-02-04 01:30:00,29.9,26.8,29.85,West,269,2.0,2.0,88,0.00,,,0.00,Wunderground v.1.15,2013-02-04 07:30:00,
2013-02-04 01:40:00,29.7,26.6,29.84,WSW,255,1.0,1.0,88,0.00,,,0.00,Wunderground v.1.15,2013-02-04 07:40:00,
2013-02-04 01:50:00,29.0,25.9,29.84,WSW,250,0.0,0.0,88,0.00,,,0.00,Wunderground v.1.15,2013-02-04 07:50:00,
2013-02-04 02:00:00,28.7,26.1,29.85,WSW,250,0.0,1.0,90,0.00,,,0.00,Wunderground v.1.15,2013-02-04 08:00:00,
2013-02-04 02:10:00,28.5,25.9,29.85,West,276,0.0,0.0,90,0.00,,,0.00,Wunderground v.1.15,2013-02-04 08:10:00,
2013-02-04 02:20:00,28.3,25.7,29.86,West,281,0.0,1.0,90,0.00,,,0.00,Wunderground v.1.15,2013-02-04 08:20:00,
2013-02-04 02:30:00,28.2,25.9,29.86,WNW,285,2.0,3.0,91,0.00,,,0.00,Wunderground v.1.15,2013-02-04 08:30:00,
2013-02-04 02:40:00,28.5,26.2,29.86,WNW,291,3.0,5.0,91,0.00,,,0.00,Wunderground v.1.15,2013-02-04 08:40:00,
2013-02-04 02:50:00,28.9,26.6,29.87,WNW,291,3.0,3.0,91,0.00,,,0.00,Wunderground v.1.15,2013-02-04 08:50:00,
2013-02-04 03:00:00,29.2,26.6,29.87,WNW,290,4.0,5.0,90,0.00,,,0.00,Wunderground v.1.15,2013-02-04 09:00:00,
2013-02-04 03:10:00,28.9,26.1,29.87,West,271,3.0,3.0,89,0.00,,,0.00,Wunderground v.1.15,2013-02-04 09:10:00,
2013-02-04 03:20:00,28.5,25.9,29.88,WNW,291,3.0,3.0,90,0.00,,,0.00,Wunderground v.1.15,2013-02-04 09:20:00,
2013-02-04 03:30:00,28.7,26.1,29.89,WNW,297,4.0,4.0,90,0.00,,,0.00,Wunderground v.1.15,2013-02-04 09:30:00,
2013-02-04 03:40:00,28.7,26.1,29.89,WNW,295,3.0,3.0,90,0.00,,,0.00,Wunderground v.1.15,2013-02-04 09:40:00,
2013-02-04 03:50:00,29.1,26.3,29.89,WNW,293,3.0,5.0,89,0.00,,,0.00,Wunderground v.1.15,2013-02-04 09:50:00,
2013-02-04 04:00:00,31.6,27.3,29.89,West,281,5.0,5.0,84,0.00,,,0.00,Wunderground v.1.15,2013-02-04 10:00:00,
2013-02-04 04:10:00,32.3,27.4,29.90,West,278,4.0,4.0,82,0.00,,,0.00,Wunderground v.1.15,2013-02-04 10:10:00,
2013-02-04 04:20:00,34.5,28.7,29.90,WNW,295,5.0,5.0,79,0.00,,,0.00,Wunderground v.1.15,2013-02-04 10:20:00,
2013-02-04 04:30:00,35.6,28.5,29.89,WNW,293,5.0,5.0,75,0.00,,,0.00,Wunderground v.1.15,2013-02-04 10:30:00,
2013-02-04 04:40:00,35.6,28.1,29.90,NW,324,4.0,4.0,74,0.00,,,0.00,Wunderground v.1.15,2013-02-04 10:40:00,
2013-02-04 04:50:00,35.2,27.7,29.90,WNW,298,3.0,3.0,74,0.00,,,0.00,Wunderground v.1.15,2013-02-04 10:50:00,
2013-02-04 05:00:00,34.8,27.7,29.91,WNW,295,2.0,2.0,75,0.00,,,0.00,Wunderground v.1.15,2013-02-04 11:00:00,
2013-02-04 05:10:00,34.7,27.6,29.91,WNW,290,3.0,3.0,75,0.00,,,0.00,Wunderground v.1.15,2013-02-04 11:10:00,
2013-02-04 05:20:00,34.3,27.2,29.92,West,280,3.0,3.0,75,0.00,,,0.00,Wunderground v.1.15,2013-02-04 11:20:00,
2013-02-04 05:30:00,34.3,27.2,29.92,WNW,298,3.0,4.0,75,0.00,,,0.00,Wunderground v.1.15,2013-02-04 11:30:00,
2013-02-04 05:40:00,34.1,27.3,29.93,WNW,285,3.0,3.0,76,0.00,,,0.00,Wunderground v.1.15,2013-02-04 11:40:00,
2013-02-04 05:50:00,33.8,27.7,29.93,North,360,2.0,3.0,78,0.00,,,0.00,Wunderground v.1.15,2013-02-04 11:50:00,
2013-02-04 06:00:00,34.2,27.7,29.94,WNW,298,3.0,3.0,77,0.00,,,0.00,Wunderground v.1.15,2013-02-04 12:00:00,
2013-02-04 06:10:00,34.1,28.0,29.94,NW,306,3.0,3.0,78,0.00,,,0.00,Wunderground v.1.15,2013-02-04 12:10:00,
2013-02-04 06:20:00,34.1,27.6,29.95,WNW,297,3.0,4.0,77,0.00,,,0.00,Wunderground v.1.15,2013-02-04 12:20:00,
2013-02-04 06:30:00,34.1,28.0,29.96,WNW,296,4.0,4.0,78,0.00,,,0.00,Wunderground v.1.15,2013-02-04 12:30:00,
2013-02-04 06:40:00,33.9,27.8,29.97,NNW,330,3.0,3.0,78,0.00,,,0.00,Wunderground v.1.15,2013-02-04 12:40:00,
2013-02-04 06:50:00,33.9,27.8,29.97,NW,326,3.0,3.0,78,0.00,,,0.00,Wunderground v.1.15,2013-02-04 12:50:00,
2013-02-04 07:00:00,33.9,27.8,29.97,NNW,333,3.0,3.0,78,0.00,,,0.00,Wunderground v.1.15,2013-02-04 13:00:00,
2013-02-04 07:10:00,33.7,27.6,29.98,NW,323,3.0,3.0,78,0.00,,,0.00,Wunderground v.1.15,2013-02-04 13:10:00,
2013-02-04 07:20:00,33.4,27.6,29.98,NW,312,2.0,2.0,79,0.00,,,0.00,Wunderground v.1.15,2013-02-04 13:20:00,
2013-02-04 07:30:00,32.7,26.9,29.99,SW,229,1.0,1.0,79,0.00,,,0.00,Wunderground v.1.15,2013-02-04 13:30:00,
2013-02-04 07:40:00,31.0,25.6,29.99,SW,214,1.0,1.0,80,0.00,,,0.00,Wunderground v.1.15,2013-02-04 13:40:00,
2013-02-04 07:50:00,29.7,24.9,29.99,SW,214,0.0,0.0,82,0.00,,,0.00,Wunderground v.1.15,2013-02-04 13:50:00,
2013-02-04 08:00:00,28.7,24.5,29.99,SW,215,0.0,0.0,84,0.00,,,0.00,Wunderground v.1.15,2013-02-04 14:00:00,
2013-02-04 08:10:00,28.4,24.7,29.99,West,277,0.0,0.0,86,0.00,,,0.00,Wunderground v.1.15,2013-02-04 14:10:00,
2013-02-04 08:20:00,29.7,26.0,30.00,WSW,257,0.0,0.0,86,0.00,,,0.00,Wunderground v.1.15,2013-02-04 14:20:00,
2013-02-04 08:30:00,30.4,26.4,30.00,WSW,257,0.0,0.0,85,0.00,,,0.00,Wunderground v.1.15,2013-02-04 14:30:00,
2013-02-04 08:40:00,31.2,27.5,30.00,WNW,291,1.0,3.0,86,0.00,,,0.00,Wunderground v.1.15,2013-02-04 14:40:00,
2013-02-04 08:50:00,32.6,27.7,30.01,West,274,3.0,3.0,82,0.00,,,0.00,Wunderground v.1.15,2013-02-04 14:50:00,
2013-02-04 09:00:00,33.3,28.4,30.01,West,281,3.0,3.0,82,0.00,,,0.00,Wunderground v.1.15,2013-02-04 15:00:00,
2013-02-04 09:10:00,34.4,29.5,30.02,WNW,303,3.0,5.0,82,0.00,,,0.00,Wunderground v.1.15,2013-02-04 15:10:00,
2013-02-04 09:20:00,35.2,29.3,30.01,WNW,288,4.0,5.0,79,0.00,,,0.00,Wunderground v.1.15,2013-02-04 15:20:00,
2013-02-04 09:30:00,35.8,29.6,30.01,NNW,327,4.0,5.0,78,0.00,,,0.00,Wunderground v.1.15,2013-02-04 15:30:00,
2013-02-04 09:40:00,36.6,30.1,30.01,NNW,338,4.0,4.0,77,0.00,,,0.00,Wunderground v.1.15,2013-02-04 15:40:00,
2013-02-04 09:50:00,37.3,30.1,30.02,NNE,16,5.0,5.0,75,0.00,,,0.00,Wunderground v.1.15,2013-02-04 15:50:00,
2013-02-04 10:00:00,37.7,29.8,30.02,North,351,6.0,6.0,73,0.00,,,0.00,Wunderground v.1.15,2013-02-04 16:00:00,
2013-02-04 10:10:00,38.1,30.2,30.02,NNW,335,7.0,7.0,73,0.00,,,0.00,Wunderground v.1.15,2013-02-04 16:10:00,
2013-02-04 10:20:00,38.3,30.4,30.03,North,3,6.0,11.0,73,0.00,,,0.00,Wunderground v.1.15,2013-02-04 16:20:00,
2013-02-04 10:30:00,38.7,30.4,30.03,NW,323,6.0,6.0,72,0.00,,,0.00,Wunderground v.1.15,2013-02-04 16:30:00,
2013-02-04 10:40:00,39.2,30.9,30.03,North,352,5.0,5.0,72,0.00,,,0.00,Wunderground v.1.15,2013-02-04 16:40:00,
2013-02-04 10:50:00,39.4,30.8,30.03,North,349,5.0,5.0,71,0.00,,,0.00,Wunderground v.1.15,2013-02-04 16:50:00,
2013-02-04 11:00:00,39.3,30.3,30.03,NNW,329,5.0,5.0,70,0.00,,,0.00,Wunderground v.1.15,2013-02-04 17:00:00,
2013-02-04 11:10:00,40.1,30.7,30.03,North,357,5.0,5.0,69,0.00,,,0.00,Wunderground v.1.15,2013-02-04 17:10:00,
2013-02-04 11:20:00,40.3,30.9,30.03,NNE,15,5.0,5.0,69,0.00,,,0.00,Wunderground v.1.15,2013-02-04 17:20:00,
2013-02-04 11:30:00,40.1,30.7,30.03,NNW,345,5.0,5.0,69,0.00,,,0.00,Wunderground v.1.15,2013-02-04 17:30:00,
2013-02-04 11:40:00,40.3,30.6,30.03,North,6,4.0,6.0,68,0.00,,,0.00,Wunderground v.1.15,2013-02-04 17:40:00,
2013-02-04 11:50:00,40.4,31.7,30.04,NNW,343,4.0,4.0,71,0.00,,,0.00,Wunderground v.1.15,2013-02-04 17:50:00,
2013-02-04 12:00:00,40.7,31.3,30.03,North,11,4.0,7.0,69,0.00,,,0.00,Wunderground v.1.15,2013-02-04 18:00:00,
2013-02-04 12:10:00,40.3,31.3,30.03,NNW,343,5.0,5.0,70,0.00,,,0.00,Wunderground v.1.15,2013-02-04 18:10:00,
2013-02-04 12:20:00,40.1,31.4,30.02,North,360,6.0,6.0,71,0.00,,,0.00,Wunderground v.1.15,2013-02-04 18:20:00,
2013-02-04 12:30:00,40.3,30.9,30.02,North,3,5.0,6.0,69,0.00,,,0.00,Wunderground v.1.15,2013-02-04 18:30:00,
2013-02-04 12:40:00,40.3,31.3,30.02,East,85,5.0,5.0,70,0.00,,,0.00,Wunderground v.1.15,2013-02-04 18:40:00,
2013-02-04 12:50:00,41.1,31.7,30.02,NNE,31,3.0,3.0,69,0.00,,,0.00,Wunderground v.1.15,2013-02-04 18:50:00,
2013-02-04 13:00:00,41.3,31.2,30.02,North,360,4.0,4.0,67,0.00,,,0.00,Wunderground v.1.15,2013-02-04 19:00:00,
2013-02-04 13:10:00,41.6,31.4,30.01,North,5,4.0,5.0,67,0.00,,,0.00,Wunderground v.1.15,2013-02-04 19:10:00,
2013-02-04 13:20:00,42.1,31.6,30.01,NE,41,2.0,2.0,66,0.00,,,0.00,Wunderground v.1.15,2013-02-04 19:20:00,
2013-02-04 13:30:00,41.4,31.3,30.00,East,96,3.0,4.0,67,0.00,,,0.00,Wunderground v.1.15,2013-02-04 19:30:00,
2013-02-04 13:40:00,41.5,32.1,30.00,NE,40,3.0,3.0,69,0.00,,,0.00,Wunderground v.1.15,2013-02-04 19:40:00,
2013-02-04 13:50:00,42.4,32.2,30.00,ENE,77,2.0,2.0,67,0.00,,,0.00,Wunderground v.1.15,2013-02-04 19:50:00,
2013-02-04 14:00:00,42.2,32.4,30.00,ESE,103,3.0,3.0,68,0.00,,,0.00,Wunderground v.1.15,2013-02-04 20:00:00,
2013-02-04 14:10:00,42.4,32.6,29.99,NW,304,3.0,3.0,68,0.00,,,0.00,Wunderground v.1.15,2013-02-04 20:10:00,
2013-02-04 14:20:00,43.2,33.3,29.99,North,7,2.0,3.0,68,0.00,,,0.00,Wunderground v.1.15,2013-02-04 20:20:00,
2013-02-04 14:30:00,42.0,32.2,29.99,NW,304,2.0,2.0,68,0.00,,,0.00,Wunderground v.1.15,2013-02-04 20:30:00,
2013-02-04 14:40:00,42.2,32.4,29.98,NNE,30,2.0,2.0,68,0.00,,,0.00,Wunderground v.1.15,2013-02-04 20:40:00,
2013-02-04 14:50:00,43.4,32.8,29.98,East,85,1.0,2.0,66,0.00,,,0.00,Wunderground v.1.15,2013-02-04 20:50:00,
2013-02-04 15:00:00,43.3,32.3,29.98,NNE,16,2.0,2.0,65,0.00,,,0.00,Wunderground v.1.15,2013-02-04 21:00:00,
2013-02-04 15:10:00,43.7,33.1,29.98,SE,145,1.0,1.0,66,0.00,,,0.00,Wunderground v.1.15,2013-02-04 21:10:00,
2013-02-04 15:20:00,43.8,32.4,29.98,ESE,120,2.0,4.0,64,0.00,,,0.00,Wunderground v.1.15,2013-02-04 21:20:00,
2013-02-04 15:30:00,42.8,32.2,29.98,SE,139,6.0,6.0,66,0.00,,,0.00,Wunderground v.1.15,2013-02-04 21:30:00,
2013-02-04 15:40:00,42.7,32.1,29.98,ESE,111,4.0,4.0,66,0.00,,,0.00,Wunderground v.1.15,2013-02-04 21:40:00,
2013-02-04 15:50:00,42.9,32.3,29.97,ESE,116,3.0,3.0,66,0.00,,,0.00,Wunderground v.1.15,2013-02-04 21:50:00,
2013-02-04 16:00:00,43.2,32.2,29.97,ENE,68,3.0,3.0,65,0.00,,,0.00,Wunderground v.1.15,2013-02-04 22:00:00,
2013-02-04 16:10:00,43.4,32.0,29.97,SE,146,2.0,3.0,64,0.00,,,0.00,Wunderground v.1.15,2013-02-04 22:10:00,
2013-02-04 16:20:00,43.8,32.4,29.96,East,86,2.0,2.0,64,0.00,,,0.00,Wunderground v.1.15,2013-02-04 22:20:00,
2013-02-04 16:30:00,43.8,32.0,29.95,ENE,58,2.0,2.0,63,0.00,,,0.00,Wunderground v.1.15,2013-02-04 22:30:00,
2013-02-04 16:40:00,43.2,31.8,29.95,SE,139,3.0,3.0,64,0.00,,,0.00,Wunderground v.1.15,2013-02-04 22:40:00,
2013-02-04 16:50:00,42.9,31.6,29.95,ESE,115,3.0,4.0,64,0.00,,,0.00,Wunderground v.1.15,2013-02-04 22:50:00,
2013-02-04 17:00:00,42.5,31.6,29.94,ESE,107,2.0,2.0,65,0.00,,,0.00,Wunderground v.1.15,2013-02-04 23:00:00,
2013-02-04 17:10:00,41.2,31.1,29.94,East,94,2.0,2.0,67,0.00,,,0.00,Wunderground v.1.15,2013-02-04 23:10:00,
2013-02-04 17:20:00,40.3,30.9,29.95,East,84,2.0,2.0,69,0.00,,,0.00,Wunderground v.1.15,2013-02-04 23:20:00,
2013-02-04 17:30:00,38.6,30.4,29.95,ESE,105,3.0,5.0,72,0.00,,,0.00,Wunderground v.1.15,2013-02-04 23:30:00,
2013-02-04 17:40:00,37.4,30.2,29.95,ESE,116,3.0,3.0,75,0.00,,,0.00,Wunderground v.1.15,2013-02-04 23:40:00,
2013-02-04 17:50:00,36.6,29.7,29.95,ESE,120,2.0,2.0,76,0.00,,,0.00,Wunderground v.1.15,2013-02-04 23:50:00,
2013-02-04 18:00:00,35.6,29.4,29.96,ESE,122,2.0,2.0,78,0.00,,,0.00,Wunderground v.1.15,2013-02-05 00:00:00,
2013-02-04 18:10:00,34.6,29.1,29.96,East,100,1.0,1.0,80,0.00,,,0.00,Wunderground v.1.15,2013-02-05 00:10:00,
2013-02-04 18:20:00,33.8,28.9,29.96,ESE,115,2.0,2.0,82,0.00,,,0.00,Wunderground v.1.15,2013-02-05 00:20:00,
2013-02-04 18:30:00,33.3,28.7,29.96,East,86,2.0,2.0,83,0.00,,,0.00,Wunderground v.1.15,2013-02-05 00:30:00,
2013-02-04 18:40:00,32.8,28.5,29.97,ESE,117,1.0,2.0,84,0.00,,,0.00,Wunderground v.1.15,2013-02-05 00:40:00,
2013-02-04 18:50:00,32.4,28.1,29.97,ESE,102,2.0,2.0,84,0.00,,,0.00,Wunderground v.1.15,2013-02-05 00:50:00,
2013-02-04 19:00:00,32.0,27.7,29.97,ESE,113,1.0,1.0,84,0.00,,,0.00,Wunderground v.1.15,2013-02-05 01:00:00,
2013-02-04 19:10:00,31.8,27.5,29.97,ESE,121,2.0,3.0,84,0.00,,,0.00,Wunderground v.1.15,2013-02-05 01:10:00,
2013-02-04 19:20:00,31.2,27.2,29.97,SE,129,3.0,3.0,85,0.00,,,0.00,Wunderground v.1.15,2013-02-05 01:20:00,
2013-02-04 19:30:00,30.8,27.1,29.97,SE,130,3.0,3.0,86,0.00,,,0.00,Wunderground v.1.15,2013-02-05 01:30:00,
2013-02-04 19:40:00,30.7,27.0,29.97,ENE,72,3.0,3.0,86,0.00,,,0.00,Wunderground v.1.15,2013-02-05 01:40:00,
2013-02-04 19:50:00,30.5,27.1,29.97,ENE,71,4.0,4.0,87,0.00,,,0.00,Wunderground v.1.15,2013-02-05 01:50:00,
2013-02-04 20:00:00,30.2,26.8,29.96,ESE,107,3.0,3.0,87,0.00,,,0.00,Wunderground v.1.15,2013-02-05 02:00:00,
2013-02-04 20:10:00,29.8,26.7,29.96,SE,128,3.0,3.0,88,0.00,,,0.00,Wunderground v.1.15,2013-02-05 02:10:00,
2013-02-04 20:20:00,30.0,26.9,29.96,ESE,117,3.0,3.0,88,0.00,,,0.00,Wunderground v.1.15,2013-02-05 02:20:00,
2013-02-04 20:30:00,30.0,26.9,29.96,ESE,113,2.0,2.0,88,0.00,,,0.00,Wunderground v.1.15,2013-02-05 02:30:00,
2013-02-04 20:40:00,29.9,26.8,29.96,SE,131,2.0,3.0,88,0.00,,,0.00,Wunderground v.1.15,2013-02-05 02:40:00,
2013-02-04 20:50:00,29.7,26.6,29.96,SE,125,2.0,2.0,88,0.00,,,0.00,Wunderground v.1.15,2013-02-05 02:50:00,
2013-02-04 21:00:00,29.6,26.5,29.96,East,101,1.0,1.0,88,0.00,,,0.00,Wunderground v.1.15,2013-02-05 03:00:00,
2013-02-04 21:10:00,29.6,26.8,29.96,ESE,119,1.0,1.0,89,0.00,,,0.00,Wunderground v.1.15,2013-02-05 03:10:00,
2013-02-04 21:20:00,29.4,26.6,29.96,SE,129,1.0,1.0,89,0.00,,,0.00,Wunderground v.1.15,2013-02-05 03:20:00,
2013-02-04 21:30:00,29.3,26.5,29.96,SE,127,0.0,0.0,89,0.00,,,0.00,Wunderground v.1.15,2013-02-05 03:30:00,
2013-02-04 21:40:00,29.4,26.6,29.95,ESE,113,0.0,0.0,89,0.00,,,0.00,Wunderground v.1.15,2013-02-05 03:40:00,
2013-02-04 21:50:00,29.3,26.5,29.96,SSE,154,0.0,0.0,89,0.00,,,0.00,Wunderground v.1.15,2013-02-05 03:50:00,
2013-02-04 22:00:00,29.1,26.3,29.95,SE,135,0.0,1.0,89,0.00,,,0.00,Wunderground v.1.15,2013-02-05 04:00:00,
2013-02-04 22:10:00,28.9,26.3,29.95,SE,138,1.0,1.0,90,0.00,,,0.00,Wunderground v.1.15,2013-02-05 04:10:00,
2013-02-04 22:20:00,28.9,26.3,29.95,SE,138,0.0,0.0,90,0.00,,,0.00,Wunderground v.1.15,2013-02-05 04:20:00,
2013-02-04 22:30:00,29.5,26.9,29.94,SSE,149,2.0,2.0,90,0.00,,,0.00,Wunderground v.1.15,2013-02-05 04:30:00,
2013-02-04 22:40:00,29.6,26.8,29.95,SSE,150,1.0,1.0,89,0.00,,,0.00,Wunderground v.1.15,2013-02-05 04:40:00,
2013-02-04 22:50:00,29.5,26.7,29.94,ESE,115,1.0,1.0,89,0.00,,,0.00,Wunderground v.1.15,2013-02-05 04:50:00,
2013-02-04 23:00:00,29.5,26.9,29.93,ESE,113,2.0,2.0,90,0.00,,,0.00,Wunderground v.1.15,2013-02-05 05:00:00,
2013-02-04 23:10:00,29.7,27.1,29.93,SE,135,1.0,1.0,90,0.00,,,0.00,Wunderground v.1.15,2013-02-05 05:10:00,
2013-02-04 23:20:00,29.5,26.7,29.93,SSE,153,1.0,2.0,89,0.00,,,0.00,Wunderground v.1.15,2013-02-05 05:20:00,
2013-02-04 23:30:00,29.4,26.8,29.93,ESE,119,2.0,3.0,90,0.00,,,0.00,Wunderground v.1.15,2013-02-05 05:30:00,
2013-02-04 23:40:00,29.4,26.8,29.93,East,99,2.0,3.0,90,0.00,,,0.00,Wunderground v.1.15,2013-02-05 05:40:00,
2013-02-04 23:50:00,29.4,26.8,29.93,SE,129,2.0,2.0,90,0.00,,,0.00,Wunderground v.1.15,2013-02-05 05:50:00,